Time,TemperatureF,DewpointF,PressureIn,WindDirection,WindDirectionDegrees,WindSpeedMPH,WindSpeedGustMPH,Humidity,HourlyPrecipIn,Conditions,Clouds,dailyrainin,SoftwareType,DateUTC
2013-01-21 00:03:00,31.9,13.5,30.25,SSW,197,4.0,8.0,46,0.00,,SKC,0.00,VWS V12.07,2013-01-21 08:03:00,
2013-01-21 00:13:00,31.9,13.0,30.24,SSW,196,4.0,8.0,45,0.00,,SKC,0.00,VWS V12.07,2013-01-21 08:13:00,
2013-01-21 00:23:00,31.9,13.0,30.24,South,191,4.0,9.0,45,0.00,,SKC,0.00,VWS V12.07,2013-01-21 08:23:00,
2013-01-21 00:32:00,31.6,13.2,30.23,South,189,4.0,7.0,46,0.00,,SKC,0.00,VWS V12.07,2013-01-21 08:32:00,
2013-01-21 00:42:00,31.4,13.0,30.25,South,191,9.0,12.0,46,0.00,,SKC,0.00,VWS V12.07,2013-01-21 08:42:00,
2013-01-21 00:52:00,31.3,12.9,30.24,SSW,193,2.0,12.0,46,0.00,,SKC,0.00,VWS V12.07,2013-01-21 08:52:00,
2013-01-21 01:02:00,31.0,12.7,30.24,SSW,192,0.0,3.0,46,0.00,,SKC,0.00,VWS V12.07,2013-01-21 09:02:00,
2013-01-21 01:12:00,30.8,13.0,30.23,SSW,192,2.0,3.0,47,0.00,,SKC,0.00,VWS V12.07,2013-01-21 09:12:00,
2013-01-21 01:22:00,30.9,13.1,30.24,SSW,194,0.0,11.0,47,0.00,,SKC,0.00,VWS V12.07,2013-01-21 09:22:00,
2013-01-21 01:32:00,31.0,13.1,30.24,SSW,197,7.0,11.0,47,0.00,,SKC,0.00,VWS V12.07,2013-01-21 09:32:00,
2013-01-21 01:42:00,31.0,13.1,30.24,South,187,6.0,14.0,47,0.00,,SKC,0.00,VWS V12.07,2013-01-21 09:42:00,
2013-01-21 01:52:00,30.6,13.3,30.24,South,189,9.0,14.0,48,0.00,,SKC,0.00,VWS V12.07,2013-01-21 09:52:00,
2013-01-21 02:02:00,30.1,13.3,30.24,SW,217,5.0,11.0,49,0.00,,SKC,0.00,VWS V12.07,2013-01-21 10:02:00,
2013-01-21 02:12:00,29.5,13.2,30.23,SW,214,11.0,12.0,50,0.00,,SKC,0.00,VWS V12.07,2013-01-21 10:12:00,
2013-01-21 02:22:00,28.9,13.1,30.24,SSW,202,7.0,14.0,51,0.00,,SKC,0.00,VWS V12.07,2013-01-21 10:22:00,
2013-01-21 02:32:00,28.8,13.0,30.22,SSW,194,6.0,9.0,51,0.00,,SKC,0.00,VWS V12.07,2013-01-21 10:32:00,
2013-01-21 02:42:00,28.6,12.8,30.23,SSW,203,4.0,13.0,51,0.00,,SKC,0.00,VWS V12.07,2013-01-21 10:42:00,
2013-01-21 02:52:00,28.5,12.7,30.23,SSW,206,13.0,16.0,51,0.00,,SKC,0.00,VWS V12.07,2013-01-21 10:52:00,
2013-01-21 03:02:00,28.3,12.5,30.23,SSW,195,10.0,12.0,51,0.00,,SKC,0.00,VWS V12.07,2013-01-21 11:02:00,
2013-01-21 03:12:00,27.9,12.1,30.22,SW,215,4.0,16.0,51,0.00,,SKC,0.00,VWS V12.07,2013-01-21 11:12:00,
2013-01-21 03:22:00,27.3,11.6,30.22,SSW,205,4.0,16.0,51,0.00,,SKC,0.00,VWS V12.07,2013-01-21 11:22:00,
2013-01-21 03:32:00,26.9,11.6,30.22,SSW,209,9.0,21.0,52,0.00,,SKC,0.00,VWS V12.07,2013-01-21 11:32:00,
2013-01-21 03:42:00,26.5,11.3,30.22,SW,215,20.0,23.0,52,0.00,,SKC,0.00,VWS V12.07,2013-01-21 11:42:00,
2013-01-21 03:52:00,26.6,11.8,30.21,SSW,210,15.0,25.0,53,0.00,,SKC,0.00,VWS V12.07,2013-01-21 11:52:00,
2013-01-21 04:02:00,26.3,11.1,30.21,SSW,204,14.0,21.0,52,0.00,,SKC,0.00,VWS V12.07,2013-01-21 12:02:00,
2013-01-21 04:12:00,26.3,11.5,30.22,SSW,211,11.0,21.0,53,0.00,,SKC,0.00,VWS V12.07,2013-01-21 12:12:00,
2013-01-21 04:22:00,26.4,11.2,30.23,SSW,205,10.0,21.0,52,0.00,,SKC,0.00,VWS V12.07,2013-01-21 12:22:00,
2013-01-21 04:32:00,26.4,11.2,30.22,SSW,201,10.0,16.0,52,0.00,,SKC,0.00,VWS V12.07,2013-01-21 12:32:00,
2013-01-21 04:42:00,26.2,11.0,30.22,SSW,209,12.0,16.0,52,0.00,,SKC,0.00,VWS V12.07,2013-01-21 12:42:00,
2013-01-21 04:52:00,25.9,10.7,30.21,SSW,202,7.0,16.0,52,0.00,,SKC,0.00,VWS V12.07,2013-01-21 12:52:00,
2013-01-21 05:02:00,25.6,10.9,30.21,SSW,205,5.0,14.0,53,0.00,,SKC,0.00,VWS V12.07,2013-01-21 13:02:00,
2013-01-21 05:12:00,25.4,10.7,30.20,SSW,202,10.0,16.0,53,0.00,,SKC,0.00,VWS V12.07,2013-01-21 13:12:00,
2013-01-21 05:22:00,25.1,10.4,30.21,SSW,209,5.0,16.0,53,0.00,,SKC,0.00,VWS V12.07,2013-01-21 13:22:00,
2013-01-21 05:32:00,25.1,10.4,30.23,SSW,202,4.0,13.0,53,0.00,,SKC,0.00,VWS V12.07,2013-01-21 13:32:00,
2013-01-21 05:42:00,25.1,10.4,30.23,SSW,202,0.0,13.0,53,0.00,,SKC,0.00,VWS V12.07,2013-01-21 13:42:00,
2013-01-21 05:52:00,25.1,10.4,30.22,SSW,201,13.0,15.0,53,0.00,,SKC,0.00,VWS V12.07,2013-01-21 13:52:00,
2013-01-21 06:02:00,24.6,10.3,30.21,South,187,16.0,16.0,54,0.00,,SKC,0.00,VWS V12.07,2013-01-21 14:02:00,
2013-01-21 06:12:00,24.2,10.4,30.20,SSW,196,14.0,17.0,55,0.00,,SKC,0.00,VWS V12.07,2013-01-21 14:12:00,
2013-01-21 06:22:00,23.8,10.0,30.22,SW,218,7.0,17.0,55,0.00,,SKC,0.00,VWS V12.07,2013-01-21 14:22:00,
2013-01-21 06:32:00,23.7,10.3,30.21,SSW,200,0.0,15.0,56,0.00,,SKC,0.00,VWS V12.07,2013-01-21 14:32:00,
2013-01-21 06:42:00,23.6,10.2,30.20,SSW,208,0.0,15.0,56,0.00,,SKC,0.00,VWS V12.07,2013-01-21 14:42:00,
2013-01-21 06:53:00,23.7,10.3,30.21,SSW,208,0.0,15.0,56,0.00,,SKC,0.00,VWS V12.07,2013-01-21 14:53:00,
2013-01-21 07:02:00,23.6,10.2,30.20,SSW,208,0.0,0.0,56,0.00,,SKC,0.00,VWS V12.07,2013-01-21 15:02:00,
2013-01-21 07:12:00,12.8,12.8,30.21,North,0,0.0,0.0,100,0.00,,SKC,0.00,VWS V12.07,2013-01-21 15:12:00,
2013-01-21 07:22:00,12.8,12.8,30.20,North,0,0.0,0.0,100,0.00,,SKC,0.00,VWS V12.07,2013-01-21 15:22:00,
2013-01-21 07:32:00,12.8,12.8,30.20,North,0,0.0,0.0,100,0.00,,SKC,0.00,VWS V12.07,2013-01-21 15:32:00,
2013-01-21 07:42:00,12.8,12.8,30.21,North,0,0.0,0.0,100,0.00,,SKC,0.00,VWS V12.07,2013-01-21 15:42:00,
2013-01-21 07:52:00,22.7,9.8,30.20,SSW,198,12.0,15.0,57,0.00,,SKC,0.00,VWS V12.07,2013-01-21 15:52:00,
2013-01-21 08:02:00,23.1,9.8,30.21,SSW,201,5.0,12.0,56,0.00,,SKC,0.00,VWS V12.07,2013-01-21 16:02:00,
2013-01-21 08:12:00,23.9,10.1,30.20,South,181,13.0,18.0,55,0.00,,SKC,0.00,VWS V12.07,2013-01-21 16:12:00,
2013-01-21 08:22:00,24.8,10.1,30.20,South,176,8.0,18.0,53,0.00,,SKC,0.00,VWS V12.07,2013-01-21 16:22:00,
2013-01-21 08:32:00,24.9,9.8,30.20,SSW,196,9.0,27.0,52,0.00,,SKC,0.00,VWS V12.07,2013-01-21 16:32:00,
2013-01-21 08:42:00,24.9,10.2,30.19,SSW,206,7.0,27.0,53,0.00,,SKC,0.00,VWS V12.07,2013-01-21 16:42:00,
2013-01-21 08:52:00,25.2,10.1,30.21,SSW,193,0.0,27.0,52,0.00,,SKC,0.00,VWS V12.07,2013-01-21 16:52:00,
2013-01-21 09:02:00,25.7,10.5,30.21,South,181,0.0,11.0,52,0.00,,SKC,0.00,VWS V12.07,2013-01-21 17:02:00,
2013-01-21 09:12:00,26.1,10.5,30.20,SSW,203,16.0,18.0,51,0.00,,SKC,0.00,VWS V12.07,2013-01-21 17:12:00,
2013-01-21 09:22:00,26.6,10.9,30.20,SSW,201,14.0,20.0,51,0.00,,SKC,0.00,VWS V12.07,2013-01-21 17:22:00,
2013-01-21 09:32:00,27.9,11.2,30.21,SSW,202,4.0,17.0,49,0.00,,SKC,0.00,VWS V12.07,2013-01-21 17:32:00,
2013-01-21 09:42:00,29.5,11.8,30.20,SSW,193,5.0,17.0,47,0.00,,SKC,0.00,VWS V12.07,2013-01-21 17:42:00,
2013-01-21 09:52:00,31.0,11.7,30.20,South,187,15.0,19.0,44,0.00,,SKC,0.00,VWS V12.07,2013-01-21 17:52:00,
2013-01-21 10:02:00,31.6,12.2,30.19,SW,219,12.0,21.0,44,0.00,,SKC,0.00,VWS V12.07,2013-01-21 18:02:00,
2013-01-21 10:13:00,32.2,11.7,30.20,SW,221,14.0,22.0,42,0.00,,SKC,0.00,VWS V12.07,2013-01-21 18:13:00,
2013-01-21 10:22:00,33.1,12.0,30.20,SSW,206,18.0,23.0,41,0.00,,SKC,0.00,VWS V12.07,2013-01-21 18:22:00,
2013-01-21 10:32:00,34.7,12.3,30.19,South,178,20.0,21.0,39,0.00,,SKC,0.00,VWS V12.07,2013-01-21 18:32:00,
2013-01-21 10:43:00,35.8,12.1,30.19,South,181,8.0,21.0,37,0.00,,SKC,0.00,VWS V12.07,2013-01-21 18:43:00,
2013-01-21 10:52:00,36.7,11.6,30.18,South,180,7.0,21.0,35,0.00,,SKC,0.00,VWS V12.07,2013-01-21 18:52:00,
2013-01-21 11:02:00,37.3,11.5,30.18,SSW,207,27.0,27.0,34,0.00,,SKC,0.00,VWS V12.07,2013-01-21 19:02:00,
2013-01-21 11:12:00,38.3,11.7,30.18,SSW,197,19.0,27.0,33,0.00,,SKC,0.00,VWS V12.07,2013-01-21 19:12:00,
2013-01-21 11:22:00,38.9,12.3,30.19,SSW,197,9.0,27.0,33,0.00,,SKC,0.00,VWS V12.07,2013-01-21 19:22:00,
2013-01-21 11:32:00,39.8,12.4,30.17,South,190,7.0,17.0,32,0.00,,SKC,0.00,VWS V12.07,2013-01-21 19:32:00,
2013-01-21 11:42:00,40.2,12.0,30.18,South,191,3.0,22.0,31,0.00,,SKC,0.00,VWS V12.07,2013-01-21 19:42:00,
2013-01-21 11:52:00,40.5,13.0,30.17,SSW,194,0.0,22.0,32,0.00,,SKC,0.00,VWS V12.07,2013-01-21 19:52:00,
2013-01-21 12:02:00,41.5,13.1,30.17,SSW,205,7.0,19.0,31,0.00,,SKC,0.00,VWS V12.07,2013-01-21 20:02:00,
2013-01-21 12:12:00,42.8,12.8,30.16,South,186,0.0,20.0,29,0.00,,SKC,0.00,VWS V12.07,2013-01-21 20:12:00,
2013-01-21 12:22:00,44.4,12.5,30.17,South,189,10.0,20.0,27,0.00,,SKC,0.00,VWS V12.07,2013-01-21 20:22:00,
2013-01-21 12:32:00,45.2,13.2,30.14,South,188,11.0,20.0,27,0.00,,SKC,0.00,VWS V12.07,2013-01-21 20:32:00,
2013-01-21 12:42:00,45.8,13.7,30.14,SSW,209,6.0,20.0,27,0.00,,SKC,0.00,VWS V12.07,2013-01-21 20:42:00,
2013-01-21 12:52:00,46.1,14.0,30.15,SSE,151,11.0,21.0,27,0.00,,SKC,0.00,VWS V12.07,2013-01-21 20:52:00,
2013-01-21 13:02:00,46.6,14.4,30.13,SSW,204,0.0,15.0,27,0.00,,SKC,0.00,VWS V12.07,2013-01-21 21:02:00,
2013-01-21 13:12:00,47.4,14.2,30.14,South,169,7.0,16.0,26,0.00,,SKC,0.00,VWS V12.07,2013-01-21 21:12:00,
2013-01-21 13:22:00,47.8,14.6,30.13,South,173,0.0,18.0,26,0.00,,SKC,0.00,VWS V12.07,2013-01-21 21:22:00,
2013-01-21 13:32:00,48.4,14.2,30.12,SSE,167,14.0,14.0,25,0.00,,SKC,0.00,VWS V12.07,2013-01-21 21:32:00,
2013-01-21 13:42:00,49.5,15.1,30.13,South,172,7.0,16.0,25,0.00,,SKC,0.00,VWS V12.07,2013-01-21 21:42:00,
2013-01-21 13:52:00,50.1,14.7,30.12,South,188,7.0,16.0,24,0.00,,SKC,0.00,VWS V12.07,2013-01-21 21:52:00,
2013-01-21 14:02:00,50.7,15.2,30.13,South,178,2.0,7.0,24,0.00,,SKC,0.00,VWS V12.07,2013-01-21 22:02:00,
2013-01-21 14:12:00,51.5,14.9,30.14,SSE,168,5.0,11.0,23,0.00,,SKC,0.00,VWS V12.07,2013-01-21 22:12:00,
2013-01-21 14:22:00,52.1,13.4,30.12,South,178,0.0,11.0,21,0.00,,SKC,0.00,VWS V12.07,2013-01-21 22:22:00,
2013-01-21 14:32:00,52.9,14.1,30.13,SSW,194,0.0,7.0,21,0.00,,SKC,0.00,VWS V12.07,2013-01-21 22:32:00,
2013-01-21 14:42:00,53.4,14.5,30.13,SSW,193,0.0,7.0,21,0.00,,SKC,0.00,VWS V12.07,2013-01-21 22:42:00,
2013-01-21 14:52:00,54.5,10.6,30.12,SSW,207,8.0,13.0,17,0.00,,SKC,0.00,VWS V12.07,2013-01-21 22:52:00,
2013-01-21 15:02:00,54.5,13.1,30.13,SW,219,3.0,5.0,19,0.00,,SKC,0.00,VWS V12.07,2013-01-21 23:02:00,
2013-01-21 15:12:00,53.4,17.5,30.13,WSW,240,0.0,7.0,24,0.00,,SKC,0.00,VWS V12.07,2013-01-21 23:12:00,
2013-01-21 15:22:00,51.8,18.9,30.15,NNW,347,0.0,11.0,27,0.00,,SKC,0.00,VWS V12.07,2013-01-21 23:22:00,
2013-01-21 15:32:00,49.4,16.8,30.14,NW,325,5.0,8.0,27,0.00,,SKC,0.00,VWS V12.07,2013-01-21 23:32:00,
2013-01-21 15:42:00,49.6,17.0,30.14,NW,325,2.0,8.0,27,0.00,,SKC,0.00,VWS V12.07,2013-01-21 23:42:00,
2013-01-21 15:52:00,49.7,17.1,30.13,NW,325,0.0,8.0,27,0.00,,SKC,0.00,VWS V12.07,2013-01-21 23:52:00,
2013-01-21 16:02:00,49.7,17.1,30.13,NW,325,2.0,3.0,27,0.00,,SKC,0.00,VWS V12.07,2013-01-22 00:02:00,
2013-01-21 16:13:00,49.6,17.9,30.13,NW,325,1.0,5.0,28,0.00,,SKC,0.00,VWS V12.07,2013-01-22 00:13:00,
2013-01-21 16:22:00,48.7,17.1,30.14,NNW,334,3.0,7.0,28,0.00,,SKC,0.00,VWS V12.07,2013-01-22 00:22:00,
2013-01-21 16:32:00,47.9,17.2,30.14,NNE,22,2.0,7.0,29,0.00,,SKC,0.00,VWS V12.07,2013-01-22 00:32:00,
2013-01-21 16:42:00,46.3,16.6,30.14,NNE,24,0.0,7.0,30,0.00,,SKC,0.00,VWS V12.07,2013-01-22 00:42:00,
2013-01-21 16:52:00,45.0,16.2,30.14,NNE,32,6.0,9.0,31,0.00,,SKC,0.00,VWS V12.07,2013-01-22 00:52:00,
2013-01-21 17:02:00,44.1,16.1,30.14,NE,34,2.0,5.0,32,0.00,,SKC,0.00,VWS V12.07,2013-01-22 01:02:00,
2013-01-21 17:12:00,43.7,15.8,30.14,NE,34,3.0,6.0,32,0.00,,SKC,0.00,VWS V12.07,2013-01-22 01:12:00,
2013-01-21 17:22:00,43.1,16.0,30.16,NE,34,0.0,6.0,33,0.00,,SKC,0.00,VWS V12.07,2013-01-22 01:22:00,
2013-01-21 17:32:00,42.5,15.4,30.15,NE,34,1.0,2.0,33,0.00,,SKC,0.00,VWS V12.07,2013-01-22 01:32:00,
2013-01-21 17:42:00,42.0,15.0,30.15,NE,34,1.0,4.0,33,0.00,,SKC,0.00,VWS V12.07,2013-01-22 01:42:00,
2013-01-21 17:52:00,41.4,15.1,30.14,NE,34,0.0,4.0,34,0.00,,SKC,0.00,VWS V12.07,2013-01-22 01:52:00,
2013-01-21 18:02:00,40.8,15.3,30.15,NE,34,3.0,4.0,35,0.00,,SKC,0.00,VWS V12.07,2013-01-22 02:02:00,
2013-01-21 18:12:00,40.3,15.5,30.15,NE,34,2.0,4.0,36,0.00,,SKC,0.00,VWS V12.07,2013-01-22 02:12:00,
2013-01-21 18:22:00,40.2,14.8,30.15,NE,34,0.0,4.0,35,0.00,,SKC,0.00,VWS V12.07,2013-01-22 02:22:00,
2013-01-21 18:32:00,39.1,15.0,30.15,NE,51,2.0,7.0,37,0.00,,SKC,0.00,VWS V12.07,2013-01-22 02:32:00,
2013-01-21 18:43:00,36.4,15.0,30.15,SSW,202,0.0,10.0,41,0.00,,SKC,0.00,VWS V12.07,2013-01-22 02:43:00,
2013-01-21 18:52:00,33.6,15.5,30.14,SSW,201,0.0,10.0,47,0.00,,SKC,0.00,VWS V12.07,2013-01-22 02:52:00,
2013-01-21 19:02:00,31.7,16.1,30.14,SSW,196,3.0,12.0,52,0.00,,SKC,0.00,VWS V12.07,2013-01-22 03:02:00,
2013-01-21 19:12:00,31.6,16.0,30.13,SSW,199,9.0,12.0,52,0.00,,SKC,0.00,VWS V12.07,2013-01-22 03:12:00,
2013-01-21 19:22:00,32.3,16.2,30.14,SSW,199,7.0,12.0,51,0.00,,SKC,0.00,VWS V12.07,2013-01-22 03:22:00,
2013-01-21 19:32:00,33.7,15.6,30.15,SSW,201,8.0,9.0,47,0.00,,SKC,0.00,VWS V12.07,2013-01-22 03:32:00,
2013-01-21 19:42:00,34.0,15.4,30.14,SSW,206,7.0,10.0,46,0.00,,SKC,0.00,VWS V12.07,2013-01-22 03:42:00,
2013-01-21 19:52:00,35.0,14.8,30.14,SSW,206,9.0,11.0,43,0.00,,SKC,0.00,VWS V12.07,2013-01-22 03:52:00,
2013-01-21 20:02:00,35.9,13.9,30.15,South,189,9.0,12.0,40,0.00,,SKC,0.00,VWS V12.07,2013-01-22 04:02:00,
2013-01-21 20:12:00,33.8,14.2,30.13,SSW,211,5.0,12.0,44,0.00,,SKC,0.00,VWS V12.07,2013-01-22 04:12:00,
2013-01-21 20:22:00,33.1,14.6,30.14,SW,214,6.0,12.0,46,0.00,,SKC,0.00,VWS V12.07,2013-01-22 04:22:00,
2013-01-21 20:32:00,34.0,14.4,30.14,SSW,205,11.0,11.0,44,0.00,,SKC,0.00,VWS V12.07,2013-01-22 04:32:00,
2013-01-21 20:42:00,33.4,13.9,30.13,SSW,212,5.0,11.0,44,0.00,,SKC,0.00,VWS V12.07,2013-01-22 04:42:00,
2013-01-21 20:52:00,34.8,13.5,30.15,SSW,212,4.0,11.0,41,0.00,,SKC,0.00,VWS V12.07,2013-01-22 04:52:00,
2013-01-21 21:02:00,34.9,14.1,30.15,SW,215,5.0,8.0,42,0.00,,SKC,0.00,VWS V12.07,2013-01-22 05:02:00,
2013-01-21 21:12:00,34.4,13.7,30.13,SW,222,3.0,9.0,42,0.00,,SKC,0.00,VWS V12.07,2013-01-22 05:12:00,
2013-01-21 21:22:00,32.6,13.1,30.14,SW,223,3.0,9.0,44,0.00,,SKC,0.00,VWS V12.07,2013-01-22 05:22:00,
2013-01-21 21:32:00,31.9,13.5,30.14,SW,226,6.0,10.0,46,0.00,,SKC,0.00,VWS V12.07,2013-01-22 05:32:00,
2013-01-21 21:42:00,31.3,13.9,30.14,SW,215,6.0,10.0,48,0.00,,SKC,0.00,VWS V12.07,2013-01-22 05:42:00,
2013-01-21 21:52:00,30.3,13.4,30.14,SSW,213,4.0,10.0,49,0.00,,SKC,0.00,VWS V12.07,2013-01-22 05:52:00,
2013-01-21 22:02:00,30.7,13.4,30.13,SSW,210,7.0,9.0,48,0.00,,SKC,0.00,VWS V12.07,2013-01-22 06:02:00,
2013-01-21 22:12:00,32.1,13.7,30.12,SSW,211,10.0,16.0,46,0.00,,SKC,0.00,VWS V12.07,2013-01-22 06:12:00,
2013-01-21 22:22:00,32.6,13.1,30.14,SSW,208,12.0,19.0,44,0.00,,SKC,0.00,VWS V12.07,2013-01-22 06:22:00,
2013-01-21 22:32:00,32.2,12.8,30.13,SSW,204,10.0,14.0,44,0.00,,SKC,0.00,VWS V12.07,2013-01-22 06:32:00,
2013-01-21 22:42:00,32.0,12.6,30.13,SSW,213,9.0,16.0,44,0.00,,SKC,0.00,VWS V12.07,2013-01-22 06:42:00,
2013-01-21 22:52:00,32.2,12.8,30.13,SSW,213,9.0,16.0,44,0.00,,SKC,0.00,VWS V12.07,2013-01-22 06:52:00,
2013-01-21 23:02:00,32.3,12.3,30.13,SSW,199,9.0,14.0,43,0.00,,SKC,0.00,VWS V12.07,2013-01-22 07:02:00,
2013-01-21 23:12:00,32.0,12.1,30.14,SSW,196,8.0,14.0,43,0.00,,SKC,0.00,VWS V12.07,2013-01-22 07:12:00,
2013-01-21 23:22:00,32.2,12.8,30.13,South,191,7.0,14.0,44,0.00,,SKC,0.00,VWS V12.07,2013-01-22 07:22:00,
2013-01-21 23:32:00,31.9,12.5,30.14,SSW,197,10.0,13.0,44,0.00,,SKC,0.00,VWS V12.07,2013-01-22 07:32:00,
2013-01-21 23:42:00,32.0,12.6,30.12,South,188,7.0,16.0,44,0.00,,SKC,0.00,VWS V12.07,2013-01-22 07:42:00,
2013-01-21 23:52:00,32.3,12.8,30.13,SSW,200,11.0,16.0,44,0.00,,SKC,0.00,VWS V12.07,2013-01-22 07:52:00,